Location: Newark
(41.8083°N, 72.2500°W)
Time: 12:13:18
(UTC+00:00)

Explorer 11/Cluster Stage 4 - Pass Details

Date: 10 December 2021
Orbit: 467 x 1255 km, 28.8° (Epoch: 24 January)

Event Time Altitude Azimuth Distance (km) Brightness Sun altitude
Rises 05:31:23 0° 236° (WSW) 2,904 - -68.5°
Reaches altitude 10° 05:34:04 10° 219° (SW) 2,125 - -68.2°
Maximum altitude 05:37:42 20° 172° (S) 1,711 - -67.8°
Drops below altitude 10° 05:41:56 10° 127° (SE) 2,516 - -67.3°
Sets 05:45:27 0° 112° (ESE) 3,627 - -66.9°
